Location: Cruquius
(52.3348°N, 4.6319°E)
Time: 19:54:31
(UTC+00:00)

Cosmos 2315 Rocket - Pass Details

Date: 12 May 2021
Orbit: 965 x 1003 km, 82.9° (Epoch: 21 June)

Event Time Altitude Azimuth Distance (km) Brightness Sun altitude
Rises 20:09:55 0° 178° (S) 3,713 6.6 -6.2°
Reaches altitude 10° 20:12:27 10° 176° (S) 2,769 6.0 -6.5°
Maximum altitude 20:18:46 68° 95° (E) 1,076 4.1 -7.2°
Drops below altitude 10° 20:25:07 10° 14° (NNE) 2,786 6.8 -7.9°
Sets 20:27:40 0° 12° (NNE) 3,737 7.5 -8.2°
